Weather Roundup
Issued by NWS

Home | Current Version | Previous Version | Graphics & Text | Print | Product List | Glossary Off
Versions: 1 2 3 4 5 6 7 8 9 10 11 12 13 14 15 16 17 18 19 20 21 22 23 24 25 26 27 28 29 30 31 32 33 34 35 36 37 38 39 40 41 42 43 44 45 46 47 48 49 50

000
NZUS93 KARX 010910
HRRWXR

CURRENT HOURLY OBSERVATIONS ACROSS
MUCH OF THE UPPER MISSISSIPPI VALLEY
NATIONAL WEATHER SERVICE LA CROSSE WI
400 AM CDT WED JUL 01 2015


...SOUTHEAST MINNESOTA...


CITY           SKY/WX    TMP DP  RH WIND       PRES   REMARKS
ROCHESTER      CLOUDY    56  51  84 NE6       29.98F
ROCHESTER/MAYO FAIR      59  51  75 E3        29.98S
WINONA         PTCLDY    55  54  94 CALM      29.98S
AUSTIN         PTCLDY    57  54  88 E7        29.95F
ALBERT LEA     PTCLDY    59  54  82 E3        29.96S
DODGE CENTER   MOCLDY    57  55  94 E3        29.98R
PRESTON        CLOUDY    55  51  87 NE5       29.98S
OWATONNA       MOCLDY    57  52  82 E7        29.97S
FARIBAULT      CLOUDY    59  52  77 E5        29.97S
$$

...ELSEWHERE IN MINNESOTA...


CITY           SKY/WX    TMP DP  RH WIND       PRES   REMARKS
MINNEAPOLIS    CLOUDY    61  47  59 SE10      29.97R
INTNL FALLS    PTCLDY    44  43  96 CALM      29.97S
DULUTH         PTCLDY    49  45  86 E3        29.99S
RED WING       MOCLDY    57  50  77 E5        29.97S
REDWOOD FALLS  CLEAR     62  57  83 E6        29.93S
MANKATO        MOCLDY    63  52  67 E10       29.95S
WORTHINGTON    MOCLDY    63  57  82 SE6       29.93R
FAIRMONT       CLEAR     57  52  82 E8        29.93F
$$

...SOUTHWEST WISCONSIN...


CITY           SKY/WX    TMP DP  RH WIND       PRES   REMARKS
LA CROSSE      CLEAR     54  49  83 N3        29.97R
PRAIRIE DU CHI FOG       55  54  95 CALM      29.95S VSB 1/2
BOSCOBEL       FOG       54  53  97 CALM      29.96S VSB 1/4
LONE ROCK      PTCLDY    56  53  90 CALM      29.96S
PLATTEVILLE    CLEAR     54  52  95 N6        29.94F
FORT MC COY    CLEAR     43  43  99 CALM      29.99R FOG
CAMP DOUGLAS   FOG       43  43 100 W3        29.98R VSB 1/2
VIROQUA        FAIR      51  50  96 NE3       29.97S
WIS DELLS      CLEAR     53  46  76 NE3       29.97R
$$

...ELSEWHERE IN WISCONSIN...


CITY           SKY/WX    TMP DP  RH WIND       PRES   REMARKS
MILWAUKEE      CLOUDY    55  50  83 NW6       29.95R
MADISON        CLOUDY    59  47  64 NE8       29.94S
GREEN BAY      PTCLDY    49  45  86 N5        29.94S
EAU CLAIRE     CLEAR     48  46  93 CALM      29.98R
BLACK RVR FLS  FAIR      41  41 100 CALM      29.99R
MEDFORD        CLEAR     39  38  97 CALM      30.00R
WAUSAU         CLEAR     48  45  89 NW3       29.97R
WIS RAPIDS     CLEAR     47  44  90 CALM      29.99R
MARSHFIELD     CLEAR     47  44  90 CALM      29.98R
RICE LAKE      CLEAR     49  47  91 CALM      30.01R
$$

...NORTHEAST IOWA...


CITY           SKY/WX    TMP DP  RH WIND       PRES   REMARKS
DECORAH          N/A    N/A N/A N/A MISG        N/A
MASON CITY     CLEAR     58  54  86 E6        29.96F
CHARLES CITY   MOCLDY    57  57 100 E7        29.95F
OELWEIN        PTCLDY    55  55 100 NE6       29.95S
$$

...ELSEWHERE IN IOWA...


CITY           SKY/WX    TMP DP  RH WIND       PRES   REMARKS
DES MOINES     PTCLDY    69  62  78 E8        29.88F
IOWA CITY      CLOUDY    65  58  78 NE9       29.91F
FORT DODGE     MOCLDY    63  59  88 E5        29.92F
$$

...NORTHERN ILLINOIS...


CITY           SKY/WX    TMP DP  RH WIND       PRES   REMARKS
CHICAGO-OHARE  CLOUDY    56  51  84 NE6       29.94R
CHICAGO-MIDWAY CLOUDY    60  53  77 N7        29.93R
MOLINE         CLOUDY    67  60  78 NE3       29.90S
ROCKFORD       MOCLDY    58  54  86 CALM      29.95S
PEORIA         CLOUDY    69  63  81 E3        29.89F
$$

NOTE: "FAIR" INDICATES FEW OR NO CLOUDS BELOW 12,000 FEET WITH NO
SIGNIFICANT WEATHER AND/OR OBSTRUCTIONS TO VISIBILITY. WIND
SPEEDS ARE IN MILES-PER-HOUR.



USA.gov is the U.S. government's official web portal to all federal, state and local government web resources and services.